Tracking 28790 objects as of 19-Apr-2024
HD Live streaming from Space Station
objects crossing your sky now

DELTA 1 DEB

Track DELTA 1 DEB now!
10-day predictions


NORAD ID: 10251
Int'l Code: 1977-065CC
Perigee: 464.6 km
Apogee: 1,486.2 km
Inclination: 29.0 °
Period: 104.4 minutes
Semi major axis: 7346 km
RCS: 0.0179 m2 (small)
Launch date: July 14, 1977
Source: United States (US)
Launch site: AIR FORCE EASTERN TEST RANGE (AFETR)

Note: This is SATELLITE DEBRIS
Your satellite tracking list
Your tracking list is empty




NASA's NSSDC Master Catalog

Two Line Element Set (TLE):
1 10251U 77065CC  24109.45723682  .00004984  00000-0  69933-3 0  9995
2 10251  28.9719 133.8454 0695325  38.0448 326.7209 13.78775138307887
Source of the keplerian elements: AFSPC